This demonstration page uses our WeatherBlox Daily Observations layout. Learn more.

Left ArrowRight Arrow

36.19886, -115.1175

Hourly Observations for May 19, 2021

Temp ( °F °C ) Dew Point ( °F °C ) Humidity (%) Winds ( mph kmh ) Pressure ( in mb ) Visibility ( mi km ) Precip ( " mm )
12:53 am 00:53 Clear 84 28.9 30 -1.1 14 14 WSW 9 15 29.62 1003 10 16 N/A
1:53 am 01:53 Clear 80 26.7 29 -1.7 15 15 WSW 6 9 29.62 1003 10 16 N/A
2:53 am 02:53 Clear 77 25 27 -2.8 16 16 NNW 10 17 29.63 1003 10 16 N/A
3:53 am 03:53 Clear 74 23.3 27 -2.8 17 17 N N/A 29.63 1003 10 16 N/A
4:53 am 04:53 Clear 76 24.4 28 -2.2 17 17 SSE 5 7 29.63 1004 10 16 N/A
5:53 am 05:53 Sunny 73 22.8 29 -1.7 19 19 NNE 5 7 29.65 1004 10 16 N/A
6:53 am 06:53 Sunny 75 23.9 29 -1.7 18 18 NNW 6 9 29.66 1005 10 16 N/A
7:53 am 07:53 Sunny 78 25.6 28 -2.2 16 16 N N/A 29.67 1005 10 16 N/A
8:53 am 08:53 Sunny 81 27.2 27 -2.8 14 14 N N/A 29.66 1004 10 16 N/A
9:53 am 09:53 Sunny 85 29.4 28 -2.2 13 13 SE 13 20 29.63 1003 10 16 N/A
10:53 am 10:53 Sunny 88 31.1 28 -2.2 11 11 SSE 10 17 29.63 1003 10 16 N/A
11:53 am 11:53 Sunny 90 32.2 29 -1.7 11 11 ESE 13 20 29.60 1003 10 16 N/A
12:53 pm 12:53 Sunny 94 34.4 28 -2.2 9 9 SSE 14 22 29.57 1001 10 16 N/A
1:53 pm 13:53 Sunny 94 34.4 30 -1.1 10 10 WSW 16 26 29.54 1000 10 16 N/A
2:06 pm 14:06 Sunny 94 34.4 29 -1.7 10 10 SSW 21 33 29.40 996 10 16 N/A
2:53 pm 14:53 Sunny 95 35 27 -2.8 9 9 SSW 14 22 29.52 1000 10 16 N/A
3:53 pm 15:53 Sunny 95 35 23 -5 7 7 SSW 18 30 29.50 999 10 16 N/A
4:53 pm 16:53 Sunny 95 35 19 -7.2 6 6 SW 20 31 29.47 998 10 16 N/A
5:53 pm 17:53 Sunny 95 35 17 -8.3 6 6 SSW 20 31 29.47 998 10 16 N/A
6:53 pm 18:53 Sunny 93 33.9 13 -10.6 5 5 SSW 24 39 29.44 997 10 16 N/A
7:53 pm 19:53 Clear 89 31.7 20 -6.7 8 8 S 20 31 29.46 998 10 16 N/A
8:53 pm 20:53 Clear 86 30 21 -6.1 9 9 SSW 18 30 29.47 998 10 16 N/A
9:53 pm 21:53 Clear 83 28.3 23 -5 11 11 SSW 17 28 29.50 999 10 16 N/A
10:53 pm 22:53 Clear 81 27.2 24 -4.4 12 12 S 14 22 29.50 999 10 16 N/A
11:53 pm 23:53 Clear 79 26.1 25 -3.9 14 14 S 17 28 29.49 999 10 16 N/A

Powered by AerisWeather